Station Historical Data
Daily Summary for September 2, 2017 Units:  English    Metric   Both
« Previous Day
Next Day »
Daily Weekly Monthly Yearly Custom
  High: Low: Average:
Temperature: 99.8 °F 77.8 °F 86.1 °F
Dew Point: 56.9 °F 39.5 °F 47.4 °F
Humidity: 33 % 17 % 27 %
Wind Speed: 9.0 mph 0.0 mph 1.5 mph
Wind Gust: 16.0 mph - -
Wind:- - SE
Pressure: 29.85 in 29.80 in -
Precipitation: 0.00 in    
Historical Graphs
 
 
Tabular Data for September 2, 2017
Time Temperature Dew Point Pressure Wind Wind Speed Wind Gust Humidity Rainfall Rate (Hourly) solar
00:04 80.2 °F 46.0 °F 29.83 in ESE 4.0 mph 9.0 mph 30 % 0.00 in 0.00 W/m2
00:09 80.1 °F 46.8 °F 29.83 in ESE 1.0 mph 8.0 mph 31 % 0.00 in 0.00 W/m2
00:14 80.0 °F 45.8 °F 29.83 in Calm   8.0 mph 30 % 0.00 in 0.00 W/m2
00:19 79.9 °F 45.7 °F 29.83 in East 1.0 mph 9.0 mph 30 % 0.00 in 0.00 W/m2
00:24 79.8 °F 45.6 °F 29.83 in ESE 2.0 mph 13.0 mph 30 % 0.00 in 0.00 W/m2
00:29 79.7 °F 45.6 °F 29.83 in ESE 1.0 mph 8.0 mph 30 % 0.00 in 0.00 W/m2
00:34 79.6 °F 45.5 °F 29.83 in ESE 1.0 mph 14.0 mph 30 % 0.00 in 0.00 W/m2
00:39 79.5 °F 45.4 °F 29.83 in ESE 2.0 mph 9.0 mph 30 % 0.00 in 0.00 W/m2
00:44 79.4 °F 44.4 °F 29.83 in ESE 6.0 mph 12.0 mph 29 % 0.00 in 0.00 W/m2
00:49 79.3 °F 44.3 °F 29.83 in ESE 1.0 mph 11.0 mph 29 % 0.00 in 0.00 W/m2
00:54 79.2 °F 44.2 °F 29.83 in East 4.0 mph 9.0 mph 29 % 0.00 in 0.00 W/m2
00:59 79.1 °F 44.2 °F 29.83 in ESE 7.0 mph 14.0 mph 29 % 0.00 in 0.00 W/m2
01:04 79.0 °F 44.1 °F 29.83 in East 8.0 mph 13.0 mph 29 % 0.00 in 0.00 W/m2
01:09 78.9 °F 44.0 °F 29.83 in ESE 7.0 mph 14.0 mph 29 % 0.00 in 0.00 W/m2
01:14 78.9 °F 44.0 °F 29.83 in Calm   12.0 mph 29 % 0.00 in 0.00 W/m2
01:19 78.9 °F 44.0 °F 29.83 in East 2.0 mph 12.0 mph 29 % 0.00 in 0.00 W/m2
01:24 78.8 °F 43.9 °F 29.83 in ESE 2.0 mph 13.0 mph 29 % 0.00 in 0.00 W/m2
01:29 78.7 °F 42.9 °F 29.83 in ESE 1.0 mph 12.0 mph 28 % 0.00 in 0.00 W/m2
01:34 78.7 °F 42.9 °F 29.83 in ESE 8.0 mph 12.0 mph 28 % 0.00 in 0.00 W/m2
01:39 78.6 °F 41.9 °F 29.83 in ESE 1.0 mph 11.0 mph 27 % 0.00 in 0.00 W/m2
01:44 78.5 °F 41.8 °F 29.83 in Calm   9.0 mph 27 % 0.00 in 0.00 W/m2
01:49 78.5 °F 41.8 °F 29.83 in East 8.0 mph 15.0 mph 27 % 0.00 in 0.00 W/m2
01:54 78.5 °F 41.8 °F 29.83 in East 2.0 mph 11.0 mph 27 % 0.00 in 0.00 W/m2
01:59 78.5 °F 41.8 °F 29.83 in ESE 1.0 mph 4.0 mph 27 % 0.00 in 0.00 W/m2
02:04 78.5 °F 41.8 °F 29.83 in ESE 4.0 mph 4.0 mph 27 % 0.00 in 0.00 W/m2
02:09 78.5 °F 41.8 °F 29.83 in ESE 1.0 mph 4.0 mph 27 % 0.00 in 0.00 W/m2
02:14 78.5 °F 40.8 °F 29.83 in ESE 1.0 mph 2.0 mph 26 % 0.00 in 0.00 W/m2
02:20 78.5 °F 40.8 °F 29.83 in ESE 4.0 mph 9.0 mph 26 % 0.00 in 0.00 W/m2
02:25 78.5 °F 40.8 °F 29.83 in East 1.0 mph 12.0 mph 26 % 0.00 in 0.00 W/m2
02:30 78.5 °F 40.8 °F 29.83 in Calm   13.0 mph 26 % 0.00 in 0.00 W/m2
02:35 78.5 °F 40.8 °F 29.82 in Calm   4.0 mph 26 % 0.00 in 0.00 W/m2
02:40 78.5 °F 40.8 °F 29.83 in Calm   4.0 mph 26 % 0.00 in 0.00 W/m2
02:45 78.6 °F 41.9 °F 29.82 in East 1.0 mph 4.0 mph 27 % 0.00 in 0.00 W/m2
02:50 78.5 °F 40.8 °F 29.83 in Calm   4.0 mph 26 % 0.00 in 0.00 W/m2
02:55 78.5 °F 40.8 °F 29.83 in Calm   4.0 mph 26 % 0.00 in 0.00 W/m2
03:00 78.5 °F 40.8 °F 29.82 in ESE 1.0 mph 2.0 mph 26 % 0.00 in 0.00 W/m2
03:05 78.4 °F 40.7 °F 29.82 in Calm   5.0 mph 26 % 0.00 in 0.00 W/m2
03:10 78.4 °F 40.7 °F 29.82 in Calm   2.0 mph 26 % 0.00 in 0.00 W/m2
03:15 78.4 °F 39.7 °F 29.82 in Calm   2.0 mph 25 % 0.00 in 0.00 W/m2
03:20 78.4 °F 39.7 °F 29.82 in Calm   5.0 mph 25 % 0.00 in 0.00 W/m2
03:25 78.4 °F 40.7 °F 29.82 in ESE 1.0 mph 5.0 mph 26 % 0.00 in 0.00 W/m2
03:30 78.4 °F 40.7 °F 29.82 in Calm   6.0 mph 26 % 0.00 in 0.00 W/m2
03:35 78.4 °F 39.7 °F 29.82 in ESE 2.0 mph 5.0 mph 25 % 0.00 in 0.00 W/m2
03:40 78.4 °F 40.7 °F 29.82 in ESE 2.0 mph 5.0 mph 26 % 0.00 in 0.00 W/m2
03:45 78.5 °F 40.8 °F 29.82 in Calm   5.0 mph 26 % 0.00 in 0.00 W/m2
03:49 78.4 °F 40.7 °F 29.82 in Calm   5.0 mph 26 % 0.00 in 0.00 W/m2
03:54 78.4 °F 40.7 °F 29.82 in Calm   6.0 mph 26 % 0.00 in 0.00 W/m2
03:59 78.4 °F 40.7 °F 29.82 in ESE 2.0 mph 5.0 mph 26 % 0.00 in 0.00 W/m2
04:04 78.3 °F 40.6 °F 29.82 in Calm   4.0 mph 26 % 0.00 in 0.00 W/m2
04:09 78.3 °F 40.6 °F 29.82 in Calm   5.0 mph 26 % 0.00 in 0.00 W/m2
04:14 78.3 °F 40.6 °F 29.82 in ESE 5.0 mph 5.0 mph 26 % 0.00 in 0.00 W/m2
04:19 78.2 °F 40.5 °F 29.82 in East 4.0 mph 5.0 mph 26 % 0.00 in 0.00 W/m2
04:24 78.2 °F 40.5 °F 29.81 in Calm   5.0 mph 26 % 0.00 in 0.00 W/m2
04:29 78.2 °F 40.5 °F 29.81 in East 1.0 mph 5.0 mph 26 % 0.00 in 0.00 W/m2
04:34 78.2 °F 40.5 °F 29.81 in ESE 2.0 mph 8.0 mph 26 % 0.00 in 0.00 W/m2
04:39 78.2 °F 40.5 °F 29.81 in East 1.0 mph 4.0 mph 26 % 0.00 in 0.00 W/m2
04:44 78.1 °F 40.5 °F 29.81 in Calm   5.0 mph 26 % 0.00 in 0.00 W/m2
04:49 78.2 °F 39.5 °F 29.82 in East 2.0 mph 6.0 mph 25 % 0.00 in 0.00 W/m2
04:54 78.2 °F 40.5 °F 29.81 in Calm   6.0 mph 26 % 0.00 in 0.00 W/m2
04:59 78.2 °F 39.5 °F 29.81 in ESE 1.0 mph 6.0 mph 25 % 0.00 in 0.00 W/m2
05:04 78.2 °F 40.5 °F 29.81 in ESE 2.0 mph 5.0 mph 26 % 0.00 in 0.00 W/m2
05:09 78.2 °F 40.5 °F 29.81 in ESE 5.0 mph 6.0 mph 26 % 0.00 in 0.00 W/m2
05:14 78.2 °F 40.5 °F 29.81 in Calm   5.0 mph 26 % 0.00 in 0.00 W/m2
05:19 78.1 °F 40.5 °F 29.82 in East 4.0 mph 7.0 mph 26 % 0.00 in 0.00 W/m2
05:24 78.0 °F 40.4 °F 29.82 in East 1.0 mph 9.0 mph 26 % 0.00 in 0.00 W/m2
05:29 77.9 °F 41.3 °F 29.81 in East 4.0 mph 9.0 mph 27 % 0.00 in 0.00 W/m2
05:34 77.8 °F 41.2 °F 29.82 in East 2.0 mph 7.0 mph 27 % 0.00 in 0.00 W/m2
05:39 77.8 °F 41.2 °F 29.82 in Calm   7.0 mph 27 % 0.00 in 0.00 W/m2
05:44 77.8 °F 41.2 °F 29.82 in Calm   8.0 mph 27 % 0.00 in 0.00 W/m2
05:49 77.8 °F 41.2 °F 29.82 in East 2.0 mph 5.0 mph 27 % 0.00 in 0.00 W/m2
05:54 77.8 °F 41.2 °F 29.82 in Calm   5.0 mph 27 % 0.00 in 0.00 W/m2
05:59 77.8 °F 41.2 °F 29.82 in East 2.0 mph 7.0 mph 27 % 0.00 in 0.00 W/m2
06:04 77.8 °F 41.2 °F 29.82 in East 4.0 mph 6.0 mph 27 % 0.00 in 0.00 W/m2
06:09 77.9 °F 41.3 °F 29.82 in Calm   6.0 mph 27 % 0.00 in 0.00 W/m2
06:14 77.9 °F 41.3 °F 29.82 in Calm   5.0 mph 27 % 0.00 in 0.00 W/m2
06:19 77.9 °F 41.3 °F 29.82 in East 1.0 mph 1.0 mph 27 % 0.00 in 0.00 W/m2
06:24 77.9 °F 41.3 °F 29.82 in Calm   2.0 mph 27 % 0.00 in 0.00 W/m2
06:29 77.9 °F 41.3 °F 29.82 in Calm   5.0 mph 27 % 0.00 in 0.00 W/m2
06:34 77.9 °F 41.3 °F 29.82 in East 4.0 mph 5.0 mph 27 % 0.00 in 5.00 W/m2
06:40 77.9 °F 41.3 °F 29.82 in East 1.0 mph 5.0 mph 27 % 0.00 in 9.00 W/m2
06:45 78.0 °F 41.3 °F 29.82 in East 1.0 mph 5.0 mph 27 % 0.00 in 12.00 W/m2
06:50 78.0 °F 41.3 °F 29.83 in East 5.0 mph 5.0 mph 27 % 0.00 in 18.00 W/m2
06:55 78.1 °F 41.4 °F 29.82 in Calm   5.0 mph 27 % 0.00 in 21.00 W/m2
07:00 78.2 °F 41.5 °F 29.83 in Calm   5.0 mph 27 % 0.00 in 26.00 W/m2
07:05 78.2 °F 41.5 °F 29.83 in Calm   4.0 mph 27 % 0.00 in 35.00 W/m2
07:10 78.3 °F 41.6 °F 29.83 in Calm     27 % 0.00 in 46.00 W/m2
07:15 78.3 °F 41.6 °F 29.83 in Calm   4.0 mph 27 % 0.00 in 56.00 W/m2
07:20 78.4 °F 42.6 °F 29.83 in Calm   4.0 mph 28 % 0.00 in 70.00 W/m2
07:25 78.4 °F 42.6 °F 29.83 in Calm   5.0 mph 28 % 0.00 in 84.00 W/m2
07:30 78.4 °F 42.6 °F 29.84 in East 2.0 mph 6.0 mph 28 % 0.00 in 100.00 W/m2
07:35 78.5 °F 42.7 °F 29.83 in Calm   8.0 mph 28 % 0.00 in 116.00 W/m2
07:40 78.5 °F 43.6 °F 29.83 in Calm   8.0 mph 29 % 0.00 in 134.00 W/m2
07:45 78.5 °F 43.6 °F 29.83 in ESE 4.0 mph 8.0 mph 29 % 0.00 in 148.00 W/m2
07:50 78.5 °F 44.5 °F 29.83 in ESE 5.0 mph 12.0 mph 30 % 0.00 in 163.00 W/m2
07:55 78.5 °F 43.6 °F 29.83 in ESE 6.0 mph 13.0 mph 29 % 0.00 in 176.00 W/m2
08:00 78.4 °F 44.4 °F 29.83 in Calm   14.0 mph 30 % 0.00 in 204.00 W/m2
08:05 78.4 °F 43.5 °F 29.83 in ESE 2.0 mph 13.0 mph 29 % 0.00 in 218.00 W/m2
08:10 78.5 °F 43.6 °F 29.83 in ESE 2.0 mph 12.0 mph 29 % 0.00 in 241.00 W/m2
08:15 78.6 °F 43.7 °F 29.83 in East 6.0 mph 8.0 mph 29 % 0.00 in 258.00 W/m2
08:20 78.8 °F 44.8 °F 29.83 in East 1.0 mph 11.0 mph 30 % 0.00 in 276.00 W/m2
08:25 79.1 °F 44.2 °F 29.83 in ESE 6.0 mph 8.0 mph 29 % 0.00 in 288.00 W/m2
08:30 79.3 °F 44.3 °F 29.83 in Calm   9.0 mph 29 % 0.00 in 306.00 W/m2
08:35 79.5 °F 44.5 °F 29.83 in Calm   8.0 mph 29 % 0.00 in 322.00 W/m2
08:40 79.8 °F 44.8 °F 29.83 in Calm   6.0 mph 29 % 0.00 in 339.00 W/m2
08:45 80.0 °F 45.8 °F 29.83 in Calm   8.0 mph 30 % 0.00 in 357.00 W/m2
08:50 80.4 °F 46.2 °F 29.84 in Calm   12.0 mph 30 % 0.00 in 371.00 W/m2
08:55 80.7 °F 47.3 °F 29.84 in East 5.0 mph 11.0 mph 31 % 0.00 in 381.00 W/m2
09:00 81.0 °F 45.8 °F 29.84 in Calm   12.0 mph 29 % 0.00 in 406.00 W/m2
09:05 81.4 °F 47.0 °F 29.84 in Calm   11.0 mph 30 % 0.00 in 418.00 W/m2
09:10 81.8 °F 47.4 °F 29.84 in ESE 4.0 mph 11.0 mph 30 % 0.00 in 436.00 W/m2
09:15 82.3 °F 44.0 °F 29.84 in Calm   8.0 mph 26 % 0.00 in 450.00 W/m2
09:20 82.8 °F 46.4 °F 29.84 in Calm   6.0 mph 28 % 0.00 in 466.00 W/m2
09:25 83.1 °F 47.6 °F 29.84 in Calm   5.0 mph 29 % 0.00 in 480.00 W/m2
09:30 83.5 °F 47.0 °F 29.84 in Calm   7.0 mph 28 % 0.00 in 494.00 W/m2
09:35 83.9 °F 50.9 °F 29.84 in SE 4.0 mph 7.0 mph 32 % 0.00 in 508.00 W/m2
09:40 84.3 °F 49.5 °F 29.84 in Calm   6.0 mph 30 % 0.00 in 524.00 W/m2
09:45 84.6 °F 48.9 °F 29.84 in SE 4.0 mph 5.0 mph 29 % 0.00 in 538.00 W/m2
09:51 84.9 °F 50.0 °F 29.85 in Calm   6.0 mph 30 % 0.00 in 552.00 W/m2
09:56 85.2 °F 51.2 °F 29.84 in SE 2.0 mph 4.0 mph 31 % 0.00 in 566.00 W/m2
10:01 85.6 °F 51.5 °F 29.84 in SE 5.0 mph 5.0 mph 31 % 0.00 in 577.00 W/m2
10:06 85.9 °F 51.8 °F 29.84 in Calm   5.0 mph 31 % 0.00 in 591.00 W/m2
10:11 86.2 °F 52.0 °F 29.84 in Calm     31 % 0.00 in 605.00 W/m2
10:16 86.5 °F 52.3 °F 29.84 in Calm     31 % 0.00 in 619.00 W/m2
10:21 87.0 °F 51.8 °F 29.84 in SE 1.0 mph 1.0 mph 30 % 0.00 in 631.00 W/m2
10:26 87.5 °F 50.4 °F 29.84 in SE 4.0 mph 6.0 mph 28 % 0.00 in 643.00 W/m2
10:31 88.5 °F 50.3 °F 29.85 in Calm     27 % 0.00 in 656.00 W/m2
10:36 89.2 °F 47.7 °F 29.84 in Calm     24 % 0.00 in 668.00 W/m2
10:41 89.6 °F 48.1 °F 29.85 in SSE 4.0 mph 6.0 mph 24 % 0.00 in 677.00 W/m2
10:46 90.0 °F 48.4 °F 29.85 in Calm     24 % 0.00 in 689.00 W/m2
10:51 90.3 °F 49.7 °F 29.85 in South 2.0 mph 2.0 mph 25 % 0.00 in 701.00 W/m2
10:56 90.5 °F 47.7 °F 29.85 in South 1.0 mph 3.0 mph 23 % 0.00 in 710.00 W/m2
11:01 90.8 °F 50.2 °F 29.85 in SSW 1.0 mph 4.0 mph 25 % 0.00 in 719.00 W/m2
11:06 91.1 °F 50.4 °F 29.85 in SSW 3.0 mph 5.0 mph 25 % 0.00 in 731.00 W/m2
11:11 91.4 °F 48.4 °F 29.85 in SSW 6.0 mph 6.0 mph 23 % 0.00 in 740.00 W/m2
11:12 91.4 °F 47.2 °F 29.85 in SW 1.0 mph 6.0 mph 22 % 0.00 in 742.00 W/m2
11:17 91.8 °F 47.6 °F 29.85 in SW 5.0 mph 9.0 mph 22 % 0.00 in 752.00 W/m2
11:22 92.4 °F 48.1 °F 29.85 in SW 1.0 mph 5.0 mph 22 % 0.00 in 759.00 W/m2
11:27 92.7 °F 47.1 °F 29.85 in South 6.0 mph 9.0 mph 21 % 0.00 in 766.00 W/m2
11:32 93.1 °F 46.1 °F 29.85 in SW 3.0 mph 7.0 mph 20 % 0.00 in 770.00 W/m2
11:37 93.5 °F 47.8 °F 29.84 in Calm     21 % 0.00 in 772.00 W/m2
11:42 93.8 °F 49.2 °F 29.85 in SW 8.0 mph 8.0 mph 22 % 0.00 in 780.00 W/m2
11:47 94.2 °F 49.6 °F 29.84 in West 4.0 mph 6.0 mph 22 % 0.00 in 791.00 W/m2
11:52 94.7 °F 48.7 °F 29.84 in Calm   10.0 mph 21 % 0.00 in 789.00 W/m2
11:57 95.1 °F 49.1 °F 29.84 in WSW 3.0 mph 7.0 mph 21 % 0.00 in 796.00 W/m2
12:02 95.2 °F 49.2 °F 29.84 in Calm     21 % 0.00 in 796.00 W/m2
12:07 95.5 °F 48.1 °F 29.84 in Calm   4.0 mph 20 % 0.00 in 810.00 W/m2
12:12 95.9 °F 49.7 °F 29.84 in SW 2.0 mph 7.0 mph 21 % 0.00 in 810.00 W/m2
12:17 96.3 °F 47.4 °F 29.83 in Calm   4.0 mph 19 % 0.00 in 816.00 W/m2
12:22 96.3 °F 47.4 °F 29.83 in WSW 2.0 mph 5.0 mph 19 % 0.00 in 821.00 W/m2
12:27 96.5 °F 47.5 °F 29.83 in SW 5.0 mph 9.0 mph 19 % 0.00 in 819.00 W/m2
12:32 96.7 °F 49.1 °F 29.83 in SW 6.0 mph 10.0 mph 20 % 0.00 in 819.00 W/m2
12:37 97.0 °F 48.0 °F 29.83 in WSW 3.0 mph 3.0 mph 19 % 0.00 in 821.00 W/m2
12:42 97.3 °F 48.2 °F 29.83 in WSW 1.0 mph 8.0 mph 19 % 0.00 in 826.00 W/m2
12:47 97.5 °F 48.4 °F 29.83 in Calm   10.0 mph 19 % 0.00 in 823.00 W/m2
12:52 97.5 °F 46.9 °F 29.83 in WSW 6.0 mph 7.0 mph 18 % 0.00 in 821.00 W/m2
12:57 97.5 °F 46.9 °F 29.82 in Calm   8.0 mph 18 % 0.00 in 830.00 W/m2
13:02 97.6 °F 48.4 °F 29.82 in WSW 2.0 mph 6.0 mph 19 % 0.00 in 828.00 W/m2
13:07 97.7 °F 47.1 °F 29.82 in SW 1.0 mph 6.0 mph 18 % 0.00 in 824.00 W/m2
13:12 97.8 °F 47.2 °F 29.82 in SW 2.0 mph 6.0 mph 18 % 0.00 in 824.00 W/m2
13:17 98.1 °F 45.9 °F 29.82 in Calm   10.0 mph 17 % 0.00 in 819.00 W/m2
13:22 98.3 °F 49.0 °F 29.82 in West 5.0 mph 7.0 mph 19 % 0.00 in 816.00 W/m2
13:27 98.3 °F 49.0 °F 29.82 in SW 1.0 mph 10.0 mph 19 % 0.00 in 819.00 W/m2
13:32 98.7 °F 49.3 °F 29.82 in West 4.0 mph 6.0 mph 19 % 0.00 in 810.00 W/m2
13:37 98.9 °F 49.5 °F 29.82 in WSW 5.0 mph 10.0 mph 19 % 0.00 in 805.00 W/m2
13:42 99.0 °F 49.6 °F 29.82 in WNW 4.0 mph 8.0 mph 19 % 0.00 in 795.00 W/m2
13:48 98.8 °F 49.4 °F 29.82 in West 5.0 mph 9.0 mph 19 % 0.00 in 786.00 W/m2
13:53 98.8 °F 50.8 °F 29.82 in West 5.0 mph 10.0 mph 20 % 0.00 in 786.00 W/m2
13:58 98.9 °F 52.2 °F 29.82 in West 5.0 mph 10.0 mph 21 % 0.00 in 777.00 W/m2
14:03 99.2 °F 49.7 °F 29.82 in Calm   9.0 mph 19 % 0.00 in 770.00 W/m2
14:08 99.4 °F 49.9 °F 29.81 in SW 3.0 mph 7.0 mph 19 % 0.00 in 758.00 W/m2
14:13 99.3 °F 51.2 °F 29.81 in SW 7.0 mph 10.0 mph 20 % 0.00 in 752.00 W/m2
14:18 99.5 °F 51.4 °F 29.81 in Calm   11.0 mph 20 % 0.00 in 761.00 W/m2
14:23 99.6 °F 50.1 °F 29.81 in WSW 5.0 mph 9.0 mph 19 % 0.00 in 759.00 W/m2
14:28 99.6 °F 50.1 °F 29.81 in SW 2.0 mph 11.0 mph 19 % 0.00 in 714.00 W/m2
14:33 99.5 °F 50.0 °F 29.81 in WSW 4.0 mph 10.0 mph 19 % 0.00 in 742.00 W/m2
14:38 99.7 °F 50.1 °F 29.81 in WSW 7.0 mph 14.0 mph 19 % 0.00 in 721.00 W/m2
14:43 99.8 °F 50.2 °F 29.81 in Calm   14.0 mph 19 % 0.00 in 642.00 W/m2
14:48 99.8 °F 50.2 °F 29.81 in Calm     19 % 0.00 in 694.00 W/m2
14:53 99.4 °F 49.9 °F 29.81 in Calm   3.0 mph 19 % 0.00 in 670.00 W/m2
14:58 99.2 °F 49.7 °F 29.81 in Calm   5.0 mph 19 % 0.00 in 679.00 W/m2
15:03 99.2 °F 51.1 °F 29.81 in Calm   10.0 mph 20 % 0.00 in 671.00 W/m2
15:08 98.7 °F 52.0 °F 29.81 in Calm   5.0 mph 21 % 0.00 in 642.00 W/m2
15:13 98.3 °F 50.4 °F 29.80 in Calm   12.0 mph 20 % 0.00 in 605.00 W/m2
15:18 97.7 °F 48.5 °F 29.81 in Calm   3.0 mph 19 % 0.00 in 585.00 W/m2
15:23 97.4 °F 51.0 °F 29.81 in Calm   3.0 mph 21 % 0.00 in 559.00 W/m2
15:28 97.1 °F 49.4 °F 29.81 in Calm   1.0 mph 20 % 0.00 in 547.00 W/m2
15:33 96.8 °F 49.2 °F 29.80 in Calm   9.0 mph 20 % 0.00 in 547.00 W/m2
15:38 96.6 °F 49.0 °F 29.81 in Calm     20 % 0.00 in 522.00 W/m2
15:43 96.5 °F 51.5 °F 29.81 in Calm   2.0 mph 22 % 0.00 in 529.00 W/m2
15:48 96.4 °F 50.1 °F 29.80 in Calm   2.0 mph 21 % 0.00 in 538.00 W/m2
15:53 96.4 °F 51.4 °F 29.80 in Calm     22 % 0.00 in 504.00 W/m2
15:58 96.3 °F 51.3 °F 29.80 in Calm   2.0 mph 22 % 0.00 in 508.00 W/m2
16:03 96.3 °F 48.8 °F 29.80 in Calm   1.0 mph 20 % 0.00 in 452.00 W/m2
16:08 96.4 °F 51.4 °F 29.80 in Calm     22 % 0.00 in 476.00 W/m2
16:13 96.4 °F 52.6 °F 29.80 in Calm     23 % 0.00 in 478.00 W/m2
16:15 96.3 °F 52.5 °F 29.80 in Calm     23 % 0.00 in 489.00 W/m2
16:20 96.3 °F 52.5 °F 29.80 in Calm   1.0 mph 23 % 0.00 in 446.00 W/m2
16:25 96.2 °F 52.4 °F 29.80 in Calm   1.0 mph 23 % 0.00 in 432.00 W/m2
16:30 96.2 °F 51.2 °F 29.80 in Calm   3.0 mph 22 % 0.00 in 429.00 W/m2
16:35 96.1 °F 52.3 °F 29.80 in Calm     23 % 0.00 in 362.00 W/m2
16:40 96.0 °F 51.1 °F 29.80 in Calm   2.0 mph 22 % 0.00 in 399.00 W/m2
16:45 95.8 °F 52.1 °F 29.80 in Calm   2.0 mph 23 % 0.00 in 394.00 W/m2
16:50 95.7 °F 50.8 °F 29.80 in Calm     22 % 0.00 in 404.00 W/m2
16:55 95.6 °F 51.9 °F 29.80 in Calm   1.0 mph 23 % 0.00 in 373.00 W/m2
17:00 95.5 °F 51.8 °F 29.80 in Calm     23 % 0.00 in 369.00 W/m2
17:05 95.3 °F 51.7 °F 29.80 in West 1.0 mph 1.0 mph 23 % 0.00 in 352.00 W/m2
17:10 95.3 °F 50.5 °F 29.80 in Calm   2.0 mph 22 % 0.00 in 322.00 W/m2
17:13 95.2 °F 51.6 °F 29.80 in Calm     23 % 0.00 in 311.00 W/m2
17:18 95.1 °F 52.7 °F 29.80 in West 1.0 mph 2.0 mph 24 % 0.00 in 299.00 W/m2
17:23 95.0 °F 51.4 °F 29.80 in Calm   2.0 mph 23 % 0.00 in 285.00 W/m2
17:28 94.9 °F 52.5 °F 29.80 in Calm   2.0 mph 24 % 0.00 in 269.00 W/m2
17:33 94.7 °F 51.2 °F 29.80 in Calm     23 % 0.00 in 262.00 W/m2
17:38 94.6 °F 52.2 °F 29.81 in Calm     24 % 0.00 in 243.00 W/m2
17:43 94.4 °F 53.2 °F 29.81 in Calm     25 % 0.00 in 236.00 W/m2
17:48 94.2 °F 53.0 °F 29.81 in Calm     25 % 0.00 in 211.00 W/m2
17:53 93.9 °F 53.8 °F 29.81 in Calm     26 % 0.00 in 192.00 W/m2
17:59 93.4 °F 54.5 °F 29.81 in Calm     27 % 0.00 in 192.00 W/m2
18:04 92.9 °F 55.0 °F 29.81 in Calm     28 % 0.00 in 178.00 W/m2
18:09 92.5 °F 54.7 °F 29.81 in Calm     28 % 0.00 in 171.00 W/m2
18:14 92.2 °F 55.4 °F 29.81 in Calm     29 % 0.00 in 149.00 W/m2
18:19 92.1 °F 56.2 °F 29.81 in Calm     30 % 0.00 in 137.00 W/m2
18:24 91.8 °F 56.9 °F 29.81 in Calm     31 % 0.00 in 121.00 W/m2
18:29 91.5 °F 55.7 °F 29.81 in Calm     30 % 0.00 in 105.00 W/m2
18:34 91.0 °F 56.2 °F 29.81 in Calm     31 % 0.00 in 90.00 W/m2
18:39 90.4 °F 55.7 °F 29.81 in Calm     31 % 0.00 in 81.00 W/m2
18:44 89.8 °F 55.2 °F 29.81 in Calm     31 % 0.00 in 70.00 W/m2
18:49 89.3 °F 55.6 °F 29.81 in Calm     32 % 0.00 in 60.00 W/m2
18:54 88.7 °F 55.1 °F 29.81 in Calm     32 % 0.00 in 53.00 W/m2
18:59 88.2 °F 54.7 °F 29.81 in Calm     32 % 0.00 in 46.00 W/m2
19:04 87.8 °F 54.3 °F 29.81 in Calm     32 % 0.00 in 37.00 W/m2
19:09 87.4 °F 54.0 °F 29.81 in Calm     32 % 0.00 in 28.00 W/m2
19:14 87.0 °F 53.6 °F 29.81 in Calm     32 % 0.00 in 21.00 W/m2
19:19 86.6 °F 54.1 °F 29.82 in Calm     33 % 0.00 in 14.00 W/m2
19:24 86.2 °F 53.8 °F 29.82 in Calm     33 % 0.00 in 9.00 W/m2
19:29 85.9 °F 53.5 °F 29.82 in Calm     33 % 0.00 in 5.00 W/m2
19:34 85.5 °F 53.1 °F 29.82 in Calm     33 % 0.00 in 0.00 W/m2
19:39 85.2 °F 52.9 °F 29.82 in Calm     33 % 0.00 in 0.00 W/m2
19:44 85.0 °F 52.7 °F 29.82 in Calm     33 % 0.00 in 0.00 W/m2
19:49 84.7 °F 52.4 °F 29.82 in Calm     33 % 0.00 in 0.00 W/m2
19:54 84.5 °F 51.4 °F 29.82 in Calm     32 % 0.00 in 0.00 W/m2
19:59 84.3 °F 51.3 °F 29.82 in Calm     32 % 0.00 in 0.00 W/m2
20:04 84.1 °F 51.1 °F 29.82 in Calm     32 % 0.00 in 0.00 W/m2
20:09 84.0 °F 51.0 °F 29.82 in Calm     32 % 0.00 in 0.00 W/m2
20:18 83.8 °F 50.0 °F 29.83 in Calm     31 % 0.00 in 0.00 W/m2
20:20 83.8 °F 50.0 °F 29.83 in Calm     31 % 0.00 in 0.00 W/m2
20:24 83.8 °F 50.0 °F 29.83 in Calm     31 % 0.00 in 0.00 W/m2
20:26 83.8 °F 50.0 °F 29.83 in Calm     31 % 0.00 in 0.00 W/m2
20:28 83.8 °F 50.0 °F 29.83 in Calm     31 % 0.00 in 0.00 W/m2
20:33 83.8 °F 50.8 °F 29.83 in Calm     32 % 0.00 in 0.00 W/m2
20:38 83.8 °F 50.8 °F 29.83 in West 1.0 mph 2.0 mph 32 % 0.00 in 0.00 W/m2
20:43 83.8 °F 50.8 °F 29.83 in West 1.0 mph 2.0 mph 32 % 0.00 in 0.00 W/m2
20:48 83.9 °F 50.1 °F 29.83 in Calm   2.0 mph 31 % 0.00 in 0.00 W/m2
20:53 83.9 °F 50.1 °F 29.83 in East 2.0 mph 4.0 mph 31 % 0.00 in 0.00 W/m2
20:58 83.9 °F 50.1 °F 29.84 in ESE 1.0 mph 6.0 mph 31 % 0.00 in 0.00 W/m2
21:03 84.0 °F 50.2 °F 29.84 in Calm   6.0 mph 31 % 0.00 in 0.00 W/m2
21:08 84.0 °F 50.2 °F 29.84 in Calm   4.0 mph 31 % 0.00 in 0.00 W/m2
21:13 84.0 °F 50.2 °F 29.84 in East 4.0 mph 7.0 mph 31 % 0.00 in 0.00 W/m2
21:18 84.1 °F 50.2 °F 29.84 in ESE 1.0 mph 6.0 mph 31 % 0.00 in 0.00 W/m2
21:23 84.1 °F 50.2 °F 29.84 in ESE 1.0 mph 7.0 mph 31 % 0.00 in 0.00 W/m2
21:28 84.1 °F 50.2 °F 29.84 in ESE 2.0 mph 7.0 mph 31 % 0.00 in 0.00 W/m2
21:33 84.1 °F 50.2 °F 29.84 in Calm   6.0 mph 31 % 0.00 in 0.00 W/m2
21:38 84.1 °F 50.2 °F 29.84 in East 2.0 mph 6.0 mph 31 % 0.00 in 0.00 W/m2
21:43 84.1 °F 50.2 °F 29.85 in ESE 4.0 mph 6.0 mph 31 % 0.00 in 0.00 W/m2
21:48 84.1 °F 50.2 °F 29.85 in East 1.0 mph 6.0 mph 31 % 0.00 in 0.00 W/m2
21:53 84.1 °F 50.2 °F 29.85 in Calm   8.0 mph 31 % 0.00 in 0.00 W/m2
21:58 84.1 °F 50.2 °F 29.85 in Calm   7.0 mph 31 % 0.00 in 0.00 W/m2
22:03 84.0 °F 50.2 °F 29.85 in ESE 2.0 mph 8.0 mph 31 % 0.00 in 0.00 W/m2
22:08 84.0 °F 50.2 °F 29.85 in East 1.0 mph 7.0 mph 31 % 0.00 in 0.00 W/m2
22:13 84.0 °F 50.2 °F 29.85 in East 6.0 mph 8.0 mph 31 % 0.00 in 0.00 W/m2
22:18 83.9 °F 50.1 °F 29.85 in ESE 5.0 mph 8.0 mph 31 % 0.00 in 0.00 W/m2
22:23 83.9 °F 50.1 °F 29.85 in East 5.0 mph 8.0 mph 31 % 0.00 in 0.00 W/m2
22:28 83.9 °F 50.1 °F 29.85 in ESE 4.0 mph 9.0 mph 31 % 0.00 in 0.00 W/m2
22:33 83.8 °F 50.0 °F 29.85 in East 1.0 mph 9.0 mph 31 % 0.00 in 0.00 W/m2
22:38 83.8 °F 50.0 °F 29.85 in Calm   8.0 mph 31 % 0.00 in 0.00 W/m2
22:43 83.8 °F 49.1 °F 29.85 in Calm   8.0 mph 30 % 0.00 in 0.00 W/m2
22:48 83.7 °F 49.0 °F 29.85 in Calm   8.0 mph 30 % 0.00 in 0.00 W/m2
22:53 83.7 °F 49.0 °F 29.85 in East 1.0 mph 7.0 mph 30 % 0.00 in 0.00 W/m2
22:58 83.7 °F 49.0 °F 29.85 in East 5.0 mph 13.0 mph 30 % 0.00 in 0.00 W/m2
23:03 83.6 °F 48.9 °F 29.85 in ESE 1.0 mph 16.0 mph 30 % 0.00 in 0.00 W/m2
23:08 83.6 °F 48.9 °F 29.85 in ESE 1.0 mph 8.0 mph 30 % 0.00 in 0.00 W/m2
23:13 83.6 °F 48.9 °F 29.85 in Calm   13.0 mph 30 % 0.00 in 0.00 W/m2
23:14 83.6 °F 48.9 °F 29.85 in ESE 9.0 mph 13.0 mph 30 % 0.00 in 0.00 W/m2
23:19 83.5 °F 48.8 °F 29.85 in East 4.0 mph 12.0 mph 30 % 0.00 in 0.00 W/m2
23:24 83.4 °F 49.6 °F 29.85 in ESE 1.0 mph 11.0 mph 31 % 0.00 in 0.00 W/m2
23:29 83.3 °F 48.7 °F 29.85 in ESE 1.0 mph 8.0 mph 30 % 0.00 in 0.00 W/m2
23:34 83.2 °F 48.6 °F 29.85 in ESE 5.0 mph 7.0 mph 30 % 0.00 in 0.00 W/m2
23:39 83.2 °F 48.6 °F 29.85 in Calm   9.0 mph 30 % 0.00 in 0.00 W/m2
23:44 83.1 °F 48.5 °F 29.85 in Calm   11.0 mph 30 % 0.00 in 0.00 W/m2
23:49 83.0 °F 48.4 °F 29.85 in ESE 5.0 mph 15.0 mph 30 % 0.00 in 0.00 W/m2
23:54 83.0 °F 48.4 °F 29.85 in East 4.0 mph 9.0 mph 30 % 0.00 in 0.00 W/m2
23:59 83.0 °F 48.4 °F 29.85 in ESE 9.0 mph 12.0 mph 30 % 0.00 in 0.00 W/m2
Juneau County Weather
Compliments of Weather Underground - 4.5 mb
 WU-history PHP script courtesy of   Juneau County Weather.
powered by Cumulus v1.9.3 (1059)
Ambient Weather VWS v14.00
Top Contact Website Map Copyright © 2007 - 2018 Foresthillweather.com Never base important decisions on this or any weather information obtained from the Internet